Location: *
(58.7167°N, 26.1833°E)
Time: 01:00:10
(UTC+00:00)

Cosmos 1937 Rocket - Pass Details

Date: 25 August 2019
Orbit: 746 x 781 km, 74.0° (Epoch: 19 September)

Event Time Altitude Azimuth Distance (km) Brightness Sun altitude
Rises 20:12:32 0° 226° (SW) 3,258 6.6 -16.2°
Reaches altitude 10° 20:14:58 10° 231° (SW) 2,336 5.9 -16.4°
Maximum altitude 20:20:11 55° 309° (NW) 943 4.3 -16.7°
Drops below altitude 10° 20:25:26 10° 27° (NNE) 2,348 6.5 -17.0°
Sets 20:27:53 0° 32° (NNE) 3,277 7.2 -17.2°
